Location: Fort Worth, Tx
(32.7431°N, 97.3695°W)
Time: 21:10:22
(UTC-04:00)

Vanguard 1 Rocket - Pass Details

Date: 22 September 2024
Orbit: 650 x 4218 km, 34.3° (Epoch: 11 October)

Event Time Altitude Azimuth Distance (km) Brightness Sun altitude
Exits shadow 07:25:10 12° 278° (W) 4,763 10.4 -11.9°
Maximum altitude 07:40:31 88° 10° (N) 3,451 10.3 -8.7°
Drops below altitude 10° 08:06:48 10° 102° (ESE) 7,417 13.7 -3.2°
Sets 08:12:34 0° 103° (ESE) 8,374 14.3 -2.0°
